Previsão horária em Al Mahwit

Hoje, 14 Junho, Segunda-feira

Tempo Temperatura Precipitação Vento Pressão Humidade
00:00 +28°C° 0 mm 0 m/s 655 mmHg 39%
01:00 +30°C° 0 mm 1 m/s 655 mmHg 37%
02:00 +29°C° 0 mm 1 m/s 655 mmHg 35%
03:00 +29°C° 0 mm 2 m/s 655 mmHg 32%
04:00 +29°C° 0 mm 2 m/s 655 mmHg 29%
05:00 +28°C° 0 mm 2 m/s 655 mmHg 26%
06:00 +28°C° 0 mm 2 m/s 655 mmHg 23%
07:00 +30°C° 0 mm 1 m/s 656 mmHg 23%
08:00 +31°C° 0 mm 1 m/s 656 mmHg 22%
09:00 +32°C° 0 mm 1 m/s 657 mmHg 24%
10:00 +34°C° 0 mm 2 m/s 657 mmHg 22%
11:00 +35°C° 0 mm 4 m/s 657 mmHg 21%
12:00 +37°C° 0 mm 5 m/s 657 mmHg 19%
13:00 +36°C° 0 mm 5 m/s 656 mmHg 20%
14:00 +36°C° 0 mm 6 m/s 656 mmHg 22%
15:00 +36°C° 0 mm 7 m/s 655 mmHg 25%
16:00 +35°C° 0 mm 6 m/s 655 mmHg 28%
17:00 +34°C° 0 mm 4 m/s 655 mmHg 32%
18:00 +33°C° 0 mm 3 m/s 655 mmHg 36%
19:00 +31°C° 0 mm 2 m/s 656 mmHg 37%
20:00 +31°C° 0 mm 1 m/s 656 mmHg 37%
21:00 +28°C° 0 mm 0 m/s 656 mmHg 38%
22:00 +30°C° 0 mm 1 m/s 656 mmHg 38%
23:00 +30°C° 0 mm 1 m/s 656 mmHg 38%

Amanhã, 15 Junho, Terça-feira

Tempo Temperatura Precipitação Vento Pressão Humidade
00:00 +29°C° 0 mm 1 m/s 656 mmHg 38%
01:00 +29°C° 0 mm 1 m/s 655 mmHg 36%
02:00 +29°C° 0 mm 1 m/s 655 mmHg 34%
03:00 +29°C° 0 mm 1 m/s 654 mmHg 32%
04:00 +28°C° 0 mm 1 m/s 655 mmHg 29%
05:00 +28°C° 0 mm 1 m/s 655 mmHg 27%
06:00 +28°C° 0 mm 1 m/s 655 mmHg 24%
07:00 +30°C° 0 mm 1 m/s 656 mmHg 24%
08:00 +31°C° 0 mm 2 m/s 656 mmHg 24%
09:00 +32°C° 0 mm 2 m/s 657 mmHg 23%
10:00 +34°C° 0 mm 3 m/s 657 mmHg 23%
11:00 +35°C° 0 mm 4 m/s 657 mmHg 23%
12:00 +36°C° 0 mm 5 m/s 657 mmHg 23%
13:00 +36°C° 0 mm 6 m/s 656 mmHg 26%
14:00 +35°C° 0 mm 6 m/s 656 mmHg 29%
15:00 +35°C° 0 mm 7 m/s 655 mmHg 32%
16:00 +34°C° 0.1 mm 6 m/s 655 mmHg 36%
17:00 +33°C° 0.1 mm 5 m/s 655 mmHg 39%
18:00 +31°C° 0.1 mm 3 m/s 655 mmHg 43%
19:00 +30°C° 0.1 mm 3 m/s 655 mmHg 45%
20:00 +30°C° 0.1 mm 2 m/s 656 mmHg 48%
21:00 +29°C° 0.1 mm 1 m/s 656 mmHg 51%
22:00 +29°C° 0 mm 1 m/s 656 mmHg 51%
23:00 +27°C° 0 mm 0 m/s 656 mmHg 50%

Depois de amanhã, 16 Junho, Quarta-feira

Tempo Temperatura Precipitação Vento Pressão Humidade
00:00 +27°C° 0 mm 0 m/s 655 mmHg 50%
01:00 +27°C° 0 mm 0 m/s 655 mmHg 51%
02:00 +26°C° 0 mm 0 m/s 655 mmHg 51%
03:00 +28°C° 0 mm 1 m/s 655 mmHg 51%
04:00 +28°C° 0 mm 1 m/s 655 mmHg 51%
05:00 +28°C° 0 mm 1 m/s 655 mmHg 51%
06:00 +27°C° 0 mm 1 m/s 655 mmHg 51%
07:00 +29°C° 0 mm 1 m/s 656 mmHg 46%
08:00 +30°C° 0 mm 1 m/s 656 mmHg 41%
09:00 +31°C° 0 mm 2 m/s 657 mmHg 36%
10:00 +32°C° 0 mm 2 m/s 657 mmHg 34%
11:00 +34°C° 0 mm 3 m/s 657 mmHg 31%
12:00 +35°C° 0 mm 4 m/s 657 mmHg 29%
13:00 +35°C° 0 mm 5 m/s 657 mmHg 28%
14:00 +36°C° 0 mm 5 m/s 656 mmHg 27%
15:00 +36°C° 0 mm 5 m/s 656 mmHg 27%
16:00 +35°C° 0 mm 5 m/s 656 mmHg 29%
17:00 +34°C° 0 mm 4 m/s 656 mmHg 32%
18:00 +33°C° 0 mm 3 m/s 656 mmHg 34%
19:00 +31°C° 0 mm 3 m/s 656 mmHg 38%
20:00 +30°C° 0 mm 2 m/s 656 mmHg 41%
21:00 +29°C° 0 mm 1 m/s 656 mmHg 45%
22:00 +29°C° 0 mm 1 m/s 656 mmHg 45%
23:00 +29°C° 0 mm 1 m/s 656 mmHg 45%

17 Junho, Quinta-feira

Tempo Temperatura Precipitação Vento Pressão Humidade
00:00 +29°C° 0 mm 1 m/s 656 mmHg 45%
01:00 +29°C° 0 mm 1 m/s 656 mmHg 46%
02:00 +28°C° 0 mm 1 m/s 655 mmHg 47%
03:00 +28°C° 0 mm 1 m/s 655 mmHg 48%
04:00 +28°C° 0 mm 1 m/s 655 mmHg 47%
05:00 +27°C° 0 mm 1 m/s 655 mmHg 47%
06:00 +27°C° 0 mm 1 m/s 655 mmHg 46%
07:00 +28°C° 0 mm 1 m/s 656 mmHg 42%
08:00 +30°C° 0 mm 1 m/s 657 mmHg 38%
09:00 +31°C° 0 mm 1 m/s 657 mmHg 34%
10:00 +32°C° 0 mm 2 m/s 657 mmHg 32%
11:00 +34°C° 0 mm 3 m/s 657 mmHg 30%
12:00 +35°C° 0 mm 4 m/s 657 mmHg 27%
13:00 +36°C° 0 mm 4 m/s 657 mmHg 28%
14:00 +36°C° 0 mm 4 m/s 657 mmHg 28%
15:00 +36°C° 0 mm 5 m/s 656 mmHg 28%
16:00 +35°C° 0 mm 4 m/s 656 mmHg 32%
17:00 +34°C° 0 mm 3 m/s 656 mmHg 35%
18:00 +33°C° 0 mm 3 m/s 656 mmHg 38%
19:00 +32°C° 0 mm 2 m/s 656 mmHg 41%
20:00 +31°C° 0 mm 1 m/s 656 mmHg 44%
21:00 +30°C° 0 mm 1 m/s 657 mmHg 47%
22:00 +30°C° 0 mm 1 m/s 656 mmHg 48%
23:00 +28°C° 0 mm 0 m/s 656 mmHg 49%

18 Junho, Sexta-feira

Tempo Temperatura Precipitação Vento Pressão Humidade
00:00 +27°C° 0 mm 0 m/s 656 mmHg 50%
01:00 +27°C° 0 mm 0 m/s 655 mmHg 49%
02:00 +27°C° 0 mm 0 m/s 655 mmHg 48%
03:00 +27°C° 0 mm 0 m/s 655 mmHg 47%
04:00 +26°C° 0 mm 0 m/s 655 mmHg 48%
05:00 +28°C° 0 mm 1 m/s 655 mmHg 48%
06:00 +28°C° 0 mm 1 m/s 655 mmHg 48%
07:00 +29°C° 0 mm 1 m/s 656 mmHg 44%
08:00 +31°C° 0 mm 1 m/s 656 mmHg 39%
09:00 +32°C° 0 mm 2 m/s 657 mmHg 35%
10:00 +34°C° 0 mm 2 m/s 657 mmHg 33%
11:00 +35°C° 0 mm 3 m/s 656 mmHg 32%
12:00 +36°C° 0 mm 3 m/s 656 mmHg 31%
13:00 +36°C° 0 mm 4 m/s 656 mmHg 32%
14:00 +36°C° 0 mm 5 m/s 656 mmHg 34%
15:00 +36°C° 0 mm 5 m/s 656 mmHg 36%
16:00 +35°C° 0 mm 5 m/s 656 mmHg 40%
17:00 +34°C° 0 mm 4 m/s 656 mmHg 44%
18:00 +33°C° 0 mm 3 m/s 656 mmHg 48%
19:00 +31°C° 0.3 mm 3 m/s 656 mmHg 52%
20:00 +30°C° 0.3 mm 2 m/s 656 mmHg 56%
21:00 +29°C° 0.3 mm 1 m/s 657 mmHg 60%
22:00 +29°C° 0.1 mm 1 m/s 656 mmHg 61%
23:00 +29°C° 0.1 mm 1 m/s 656 mmHg 61%

19 Junho, Sábado

Tempo Temperatura Precipitação Vento Pressão Humidade
00:00 +27°C° 0.1 mm 0 m/s 656 mmHg 61%
01:00 +27°C° 0 mm 0 m/s 656 mmHg 60%
02:00 +27°C° 0 mm 0 m/s 655 mmHg 59%
03:00 +29°C° 0 mm 1 m/s 655 mmHg 58%
04:00 +29°C° 0 mm 1 m/s 655 mmHg 57%
05:00 +28°C° 0 mm 1 m/s 655 mmHg 56%
06:00 +28°C° 0 mm 1 m/s 655 mmHg 56%
07:00 +29°C° 0 mm 1 m/s 656 mmHg 51%
08:00 +31°C° 0 mm 1 m/s 657 mmHg 47%
09:00 +32°C° 0 mm 2 m/s 657 mmHg 42%
10:00 +33°C° 0 mm 3 m/s 657 mmHg 42%
11:00 +34°C° 0 mm 4 m/s 657 mmHg 41%
12:00 +35°C° 0 mm 4 m/s 657 mmHg 40%
13:00 +35°C° 0.2 mm 5 m/s 657 mmHg 39%
14:00 +35°C° 0.2 mm 5 m/s 656 mmHg 38%
15:00 +35°C° 0.2 mm 5 m/s 655 mmHg 37%
16:00 +34°C° 0.9 mm 4 m/s 655 mmHg 41%
17:00 +33°C° 0.9 mm 3 m/s 656 mmHg 45%
18:00 +30°C° 0.9 mm 3 m/s 656 mmHg 50%
19:00 +30°C° 0.4 mm 2 m/s 656 mmHg 50%
20:00 +29°C° 0.4 mm 2 m/s 656 mmHg 50%
21:00 +29°C° 0.4 mm 1 m/s 656 mmHg 50%
22:00 +29°C° 0 mm 1 m/s 656 mmHg 48%
23:00 +29°C° 0 mm 1 m/s 656 mmHg 47%
Mostrar mais